This demonstration page uses our WeatherBlox Daily Observations layout. Learn more.

Left ArrowRight Arrow

Hourly Observations for October 24, 2021

Temp ( °F °C ) Dew Point ( °F °C ) Humidity (%) Winds ( mph kmh ) Pressure ( in mb ) Visibility ( mi km ) Precip ( " mm )
12:53 am 00:53 Cloudy 53 11.7 48 8.9 83 83 E 13 20 29.66 1004 7 11 0.00 0.00
1:38 am 01:38 Cloudy with Mist and Fog 51 10.6 49 9.4 92 92 E 10 17 29.67 1005 3 5 0.00 0.00
1:50 am 01:50 Cloudy with Mist and Fog 50 10 48 9 94 94 E 13 20 29.68 1005 3 4 0.00 0.00
1:53 am 01:53 Cloudy with Mist and Fog 50 10 49 9.4 96 96 E 9 15 29.66 1004 3 4 0.00 0.00
2:09 am 02:09 Cloudy with Mist and Fog 50 10 49 9.4 96 96 ENE 9 15 29.67 1005 2 3 0.00 0.00
2:38 am 02:38 Cloudy with Mist and Fog 50 10 49 9.4 96 96 NE 10 17 29.68 1005 2 3 0.00 0.00
2:53 am 02:53 Cloudy with Mist and Fog 48 8.9 47 8.3 96 96 NE 12 19 29.66 1005 2 2 0.00 0.00
3:43 am 03:43 Cloudy with Light Rain 47 8.3 46 7.8 97 97 NE 13 20 29.69 1005 2 3 0.00 0.00
3:53 am 03:53 Cloudy with Light Rain 47 8.3 46 7.8 97 97 NE 14 22 29.66 1005 2 3 0.00 0.00
4:28 am 04:28 Cloudy with Light Rain 46 7.8 45 7.2 96 96 NNE 16 26 29.68 1005 3 5 0.00 0.00
4:53 am 04:53 Cloudy with Mist and Fog 45 7.2 44 6.7 97 97 NNE 14 22 29.66 1005 3 5 0.01 0.25
5:14 am 05:14 Cloudy with Mist and Fog 45 7.2 44 6.7 97 97 NNE 16 26 29.68 1005 3 4 0.00 0.00
5:27 am 05:27 Cloudy with Mist and Fog 45 7.2 44 6.7 97 97 NNE 16 26 29.68 1005 3 5 0.00 0.00
5:53 am 05:53 Cloudy with Mist and Fog 45 7.2 44 6.7 97 97 NNE 13 20 29.67 1005 5 8 0.00 0.00
6:06 am 06:06 Cloudy with Mist and Fog 45 7.2 44 6.7 97 97 NE 15 24 29.70 1006 6 10 0.00 0.00
6:53 am 06:53 Cloudy 45 7.2 45 7.2 100 100 NNE 13 20 29.67 1005 7 11 0.00 0.00
7:53 am 07:53 Cloudy with Light Rain 44 6.7 44 6.7 100 100 N 17 28 29.65 1004 5 8 0.00 0.00
8:53 am 08:53 Cloudy with Mist and Fog 44 6.7 43 6.1 96 96 NNE 14 22 29.67 1005 6 10 0.00 0.00
9:29 am 09:29 Cloudy with Nearby Thunderstorms 44 6.7 43 6.1 96 96 NNW 14 22 29.73 1007 9 14 0.00 0.00
9:37 am 09:37 Cloudy with Thunderstorms 44 6.7 43 6.1 96 96 NNW 16 26 29.74 1007 10 16 0.00 0.00
9:53 am 09:53 Cloudy with Nearby Thunderstorms 44 6.7 43 6.1 96 96 NNW 16 26 29.70 1006 10 16 0.00 0.00
10:00 am 10:00 Cloudy with Nearby Thunderstorms 44 6.7 43 6.1 96 96 N 17 28 29.74 1007 10 16 0.00 0.00
10:18 am 10:18 Cloudy 44 6.7 43 6.1 96 96 N 15 24 29.73 1007 10 16 0.00 0.00
10:53 am 10:53 Cloudy with Light Rain 45 7.2 43 6.1 93 93 NNW 15 24 29.71 1006 10 16 0.00 0.00
11:53 am 11:53 Cloudy with Mist and Fog 44 6.7 44 6.7 100 100 N 10 17 29.74 1007 3 5 0.00 0.00
11:59 am 11:59 Cloudy with Mist and Fog 44 6.7 44 6.7 100 100 N 15 24 29.77 1008 2 3 0.00 0.00
12:06 pm 12:06 Cloudy with Mist and Fog 44 6.7 43 6.1 96 96 N 16 26 29.77 1008 2 3 0.00 0.00
12:14 pm 12:14 Cloudy with Mist and Fog 44 6.7 44 6.7 100 100 N 13 20 29.76 1008 3 4 0.00 0.00
12:22 pm 12:22 Cloudy with Mist and Fog 45 7 43 6 93 93 N 13 20 29.77 1008 4 6 0.00 0.00
12:53 pm 12:53 Cloudy with Light Rain 45 7.2 44 6.7 97 97 N 16 26 29.73 1007 5 8 0.00 0.00
1:11 pm 13:11 Cloudy with Light Rain 46 7.8 44 6.7 93 93 NNW 20 31 29.75 1008 7 11 0.00 0.00
1:53 pm 13:53 Cloudy with Light Rain 47 8.3 45 7.2 93 93 NNW 17 28 29.75 1007 10 16 0.00 0.00
2:49 pm 14:49 Cloudy with Light Rain 48 9 45 7 87 87 NNW 16 26 29.77 1008 10 16 0.00 0.00
2:53 pm 14:53 Cloudy with Light Rain 48 8.9 45 7.2 89 89 N 17 28 29.76 1008 10 16 0.00 0.00
3:19 pm 15:19 Cloudy with Light Rain 48 8.9 46 7.8 93 93 NNW 15 24 29.79 1009 4 6 0.01 0.25
3:53 pm 15:53 Cloudy 50 10 47 8.3 89 89 N 14 22 29.79 1009 10 16 0.01 0.25
4:12 pm 16:12 Mostly Cloudy 52 11 48 9 88 88 N 17 28 29.78 1008 10 16 0.00 0.00
4:53 pm 16:53 Mostly Sunny 51 10.6 46 7.8 83 83 N 16 26 29.81 1009 10 16 0.00 0.00
5:53 pm 17:53 Mostly Sunny 48 8.9 44 6.7 86 86 N 15 24 29.84 1011 10 16 0.00 0.00
6:53 pm 18:53 Clear 46 7.8 43 6.1 89 89 N 12 19 29.87 1012 10 16 0.00 0.00
7:53 pm 19:53 Clear 44 6.7 42 5.6 93 93 N 8 13 29.91 1013 10 16 0.00 0.00
8:53 pm 20:53 Clear 43 6.1 41 5 93 93 NNW 7 11 29.94 1014 10 16 0.00 0.00
9:53 pm 21:53 Clear 41 5 39 3.9 93 93 undefined N/A 29.98 1015 10 16 0.00 0.00
10:53 pm 22:53 Clear 38 3.3 37 2.8 97 97 N 5 7 29.99 1016 9 14 0.00 0.00
11:22 pm 23:22 Mostly Cloudy 39 4 39 4 100 100 NNW 3 6 30.03 1017 10 16 0.00 0.00
11:53 pm 23:53 Cloudy 43 6.1 41 5 93 93 N 7 11 30.00 1016 10 16 0.00 0.00

Powered by AerisWeather